Location: Bucquoy
(50.1391°N, 2.7097°E)
Time: 22:24:09
(UTC+00:00)

Cosmos 1140 Rocket - Pass Details

Date: 06 May 2021
Orbit: 744 x 768 km, 74.1° (Epoch: 21 June)

Event Time Altitude Azimuth Distance (km) Brightness Sun altitude
Rises 02:50:29 0° 338° (NNW) 3,218 7.1 -11.9°
Reaches altitude 10° 02:52:56 10° 344° (NNW) 2,293 6.4 -11.6°
Maximum altitude 02:58:00 52° 61° (ENE) 945 4.4 -11.0°
Drops below altitude 10° 03:03:05 10° 137° (SE) 2,293 6.0 -10.5°
Sets 03:05:30 0° 142° (SE) 3,218 6.7 -10.2°
